{"data":{"norad_id":67687,"epoch":"2026-09-19T03:22:09.134400Z","epoch_age_seconds":132017,"freshness":"FRESH","line1":"1 67687U 98067YD  26262.14038350  .00149197  00000+0  95417-3 0  9995","line2":"2 67687  51.6236 176.6625 0008795 163.3610 196.7679 15.75302472 34931","mean_motion":15.75302472,"eccentricity":0.0008795,"inclination_deg":51.6236,"raan_deg":176.6625,"arg_perigee_deg":163.361,"mean_anomaly_deg":196.7679,"bstar":0.00095417,"rev_number":3493,"period_min":91.411016334646,"perigee_km":337.85868218805,"apogee_km":349.68251765631,"semimajor_km":6721.9075999222,"source":"CELESTRAK","updated_at":"2026-09-20T09:00:28.695752Z"}}